PulseSat

PulseSat

MOLNIYA 1-49

Last updated on Dec. 9, 2018, 12:08 a.m. UTC

1 12156U 81009A   18341.44218007 -.00000246  00000-0  21972-2 0  9992
2 12156  63.3350 358.9100 7236872 247.6228  25.2166  2.05696857195026
UTC
Height (km)
Latitude
Longitude
Inclination
Orbital Period

Next 30 passes for location: Hong Kong

Rise time Rise Azimuth (degrees) Set time Set Azimuth (degrees) Duration Max altitude (degrees)

No matching passes for this satellites

PulseSat

PulseSat is the new satellites software and hardware trackering solution by Pulsely.
Satellite Two Line Element Set source: US Air Force Space Command

Download PulseSat for iOS
© 2017 Pulsely Limited